When you browse on this site, cookies collect data to enhance your experience and personalize the content and advertising you see.
Visit our Privacy Policy to learn more. By continuing to use the site, you agree to this use of cookies and data.
  • In Lithuania
  • List of Countries
  • For 7 days
  • Water Temperature
  • Weather Map
  • Weather Widgets
  • user-avatar
    Login

    Hourly Weather Jewłach

    Today, 20 September, Friday

    Time Temperature Precipitation Wind Pressure Humidity
    00:00 +23°C° 0 mm 5 mps 762 mmHg 75%
    01:00 +22°C° 0 mm 4 mps 762 mmHg 76%
    02:00 +22°C° 0 mm 4 mps 761 mmHg 77%
    03:00 +22°C° 0 mm 3 mps 761 mmHg 80%
    04:00 +22°C° 0 mm 3 mps 762 mmHg 79%
    05:00 +22°C° 0 mm 3 mps 762 mmHg 78%
    06:00 +23°C° 0 mm 2 mps 762 mmHg 77%
    07:00 +22°C° 0 mm 3 mps 761 mmHg 73%
    08:00 +24°C° 0 mm 3 mps 761 mmHg 69%
    09:00 +25°C° 0 mm 3 mps 761 mmHg 64%
    10:00 +26°C° 0 mm 3 mps 760 mmHg 60%
    11:00 +27°C° 0 mm 3 mps 759 mmHg 56%
    12:00 +28°C° 0 mm 3 mps 759 mmHg 52%
    13:00 +29°C° 0 mm 3 mps 758 mmHg 49%
    14:00 +29°C° 0 mm 2 mps 757 mmHg 46%
    15:00 +30°C° 0 mm 2 mps 757 mmHg 44%
    16:00 +29°C° 0 mm 2 mps 757 mmHg 46%
    17:00 +28°C° 0 mm 1 mps 756 mmHg 48%
    18:00 +27°C° 0 mm 1 mps 756 mmHg 51%
    19:00 +26°C° 0 mm 1 mps 756 mmHg 53%
    20:00 +26°C° 0 mm 2 mps 756 mmHg 56%
    21:00 +25°C° 0 mm 2 mps 756 mmHg 58%
    22:00 +24°C° 0 mm 1 mps 755 mmHg 61%
    23:00 +24°C° 0 mm 1 mps 755 mmHg 64%

    Tomorrow, 21 September, Saturday

    Time Temperature Precipitation Wind Pressure Humidity
    00:00 +23°C° 0 mm 1 mps 754 mmHg 67%
    01:00 +23°C° 0 mm 1 mps 754 mmHg 71%
    02:00 +22°C° 0 mm 1 mps 753 mmHg 74%
    03:00 +20°C° 0 mm 0 mps 753 mmHg 78%
    04:00 +21°C° 0 mm 2 mps 753 mmHg 75%
    05:00 +21°C° 0 mm 4 mps 753 mmHg 73%
    06:00 +21°C° 0 mm 5 mps 753 mmHg 70%
    07:00 +24°C° 0 mm 7 mps 753 mmHg 62%
    08:00 +27°C° 0 mm 8 mps 753 mmHg 54%
    09:00 +29°C° 0 mm 9 mps 753 mmHg 46%
    10:00 +31°C° 0 mm 9 mps 752 mmHg 41%
    11:00 +33°C° 0 mm 9 mps 752 mmHg 36%
    12:00 +34°C° 0 mm 8 mps 752 mmHg 32%
    13:00 +34°C° 0 mm 9 mps 752 mmHg 30%
    14:00 +34°C° 0 mm 10 mps 752 mmHg 29%
    15:00 +34°C° 0 mm 11 mps 752 mmHg 28%
    16:00 +31°C° 0 mm 13 mps 753 mmHg 29%
    17:00 +27°C° 0 mm 14 mps 753 mmHg 31%
    18:00 +24°C° 0 mm 16 mps 754 mmHg 33%
    19:00 +23°C° 0 mm 16 mps 755 mmHg 33%
    20:00 +22°C° 0 mm 15 mps 756 mmHg 33%
    21:00 +22°C° 0 mm 15 mps 758 mmHg 33%
    22:00 +20°C° 0 mm 14 mps 758 mmHg 33%
    23:00 +20°C° 0 mm 13 mps 759 mmHg 33%

    Day after tomorrow, 22 September, Sunday

    Time Temperature Precipitation Wind Pressure Humidity
    00:00 +19°C° 0 mm 12 mps 759 mmHg 33%
    01:00 +19°C° 0 mm 12 mps 760 mmHg 33%
    02:00 +19°C° 0 mm 11 mps 760 mmHg 34%
    03:00 +19°C° 0 mm 11 mps 761 mmHg 34%
    04:00 +18°C° 0 mm 10 mps 762 mmHg 35%
    05:00 +18°C° 0 mm 9 mps 762 mmHg 36%
    06:00 +18°C° 0 mm 9 mps 763 mmHg 38%
    07:00 +18°C° 0 mm 8 mps 763 mmHg 37%
    08:00 +20°C° 0 mm 7 mps 764 mmHg 35%
    09:00 +20°C° 0 mm 6 mps 764 mmHg 34%
    10:00 +22°C° 0 mm 6 mps 764 mmHg 31%
    11:00 +23°C° 0 mm 6 mps 764 mmHg 27%
    12:00 +24°C° 0 mm 6 mps 764 mmHg 24%
    13:00 +26°C° 0 mm 5 mps 764 mmHg 24%
    14:00 +26°C° 0 mm 4 mps 763 mmHg 23%
    15:00 +26°C° 0 mm 3 mps 763 mmHg 22%
    16:00 +25°C° 0 mm 3 mps 763 mmHg 24%
    17:00 +24°C° 0 mm 2 mps 763 mmHg 26%
    18:00 +21°C° 0 mm 2 mps 763 mmHg 28%
    19:00 +20°C° 0 mm 3 mps 764 mmHg 37%
    20:00 +19°C° 0 mm 4 mps 764 mmHg 45%
    21:00 +17°C° 0 mm 5 mps 764 mmHg 54%
    22:00 +18°C° 0 mm 4 mps 764 mmHg 58%
    23:00 +17°C° 0 mm 3 mps 764 mmHg 61%

    23 September, Monday

    Time Temperature Precipitation Wind Pressure Humidity
    00:00 +16°C° 0 mm 2 mps 764 mmHg 65%
    01:00 +16°C° 0 mm 2 mps 764 mmHg 66%
    02:00 +16°C° 0 mm 1 mps 764 mmHg 66%
    03:00 +14°C° 0 mm 0 mps 763 mmHg 67%
    04:00 +15°C° 0 mm 1 mps 763 mmHg 67%
    05:00 +15°C° 0 mm 1 mps 763 mmHg 67%
    06:00 +15°C° 0 mm 1 mps 763 mmHg 68%
    07:00 +18°C° 0 mm 1 mps 763 mmHg 62%
    08:00 +18°C° 0 mm 2 mps 763 mmHg 56%
    09:00 +20°C° 0 mm 2 mps 763 mmHg 50%
    10:00 +23°C° 0 mm 2 mps 762 mmHg 45%
    11:00 +24°C° 0 mm 2 mps 762 mmHg 40%
    12:00 +25°C° 0 mm 2 mps 762 mmHg 35%
    13:00 +26°C° 0 mm 1 mps 761 mmHg 33%
    14:00 +26°C° 0 mm 1 mps 760 mmHg 31%
    15:00 +27°C° 0 mm 1 mps 760 mmHg 29%
    16:00 +26°C° 0 mm 1 mps 760 mmHg 32%
    17:00 +25°C° 0 mm 1 mps 760 mmHg 35%
    18:00 +24°C° 0 mm 1 mps 761 mmHg 38%
    19:00 +21°C° 0 mm 2 mps 761 mmHg 52%
    20:00 +20°C° 0 mm 3 mps 762 mmHg 65%
    21:00 +19°C° 0 mm 4 mps 762 mmHg 79%
    22:00 +19°C° 0.1 mm 3 mps 762 mmHg 80%
    23:00 +19°C° 0.1 mm 3 mps 762 mmHg 80%

    24 September, Tuesday

    Time Temperature Precipitation Wind Pressure Humidity
    00:00 +19°C° 0.1 mm 3 mps 762 mmHg 81%
    01:00 +19°C° 0.2 mm 3 mps 762 mmHg 81%
    02:00 +19°C° 0.2 mm 3 mps 763 mmHg 80%
    03:00 +19°C° 0.2 mm 2 mps 763 mmHg 80%
    04:00 +19°C° 0.1 mm 2 mps 763 mmHg 80%
    05:00 +19°C° 0.1 mm 2 mps 763 mmHg 79%
    06:00 +19°C° 0.1 mm 2 mps 763 mmHg 78%
    07:00 +19°C° 0 mm 2 mps 763 mmHg 76%
    08:00 +19°C° 0 mm 2 mps 763 mmHg 74%
    09:00 +19°C° 0 mm 3 mps 763 mmHg 72%
    10:00 +20°C° 0.1 mm 3 mps 762 mmHg 70%
    11:00 +20°C° 0.1 mm 2 mps 762 mmHg 68%
    12:00 +21°C° 0.1 mm 2 mps 761 mmHg 66%
    13:00 +23°C° 0 mm 2 mps 761 mmHg 61%
    14:00 +24°C° 0 mm 1 mps 760 mmHg 56%
    15:00 +26°C° 0 mm 1 mps 760 mmHg 51%
    16:00 +25°C° 0 mm 1 mps 760 mmHg 54%
    17:00 +24°C° 0 mm 1 mps 760 mmHg 57%
    18:00 +23°C° 0 mm 1 mps 760 mmHg 60%
    19:00 +20°C° 0 mm 0 mps 760 mmHg 63%
    20:00 +20°C° 0 mm 0 mps 760 mmHg 65%
    21:00 +19°C° 0 mm 0 mps 760 mmHg 68%
    22:00 +19°C° 0 mm 0 mps 760 mmHg 69%
    23:00 +21°C° 0 mm 1 mps 759 mmHg 69%

    25 September, Wednesday

    Time Temperature Precipitation Wind Pressure Humidity
    00:00 +21°C° 0 mm 1 mps 759 mmHg 70%
    01:00 +20°C° 0 mm 1 mps 759 mmHg 71%
    02:00 +20°C° 0 mm 1 mps 759 mmHg 72%
    03:00 +20°C° 0 mm 1 mps 759 mmHg 74%
    04:00 +19°C° 0 mm 1 mps 758 mmHg 74%
    05:00 +18°C° 0 mm 2 mps 758 mmHg 75%
    06:00 +18°C° 0 mm 2 mps 758 mmHg 75%
    07:00 +20°C° 0 mm 2 mps 758 mmHg 67%
    08:00 +23°C° 0 mm 2 mps 758 mmHg 59%
    09:00 +25°C° 0 mm 3 mps 758 mmHg 51%
    10:00 +26°C° 0 mm 2 mps 758 mmHg 46%
    11:00 +28°C° 0 mm 2 mps 757 mmHg 42%
    12:00 +29°C° 0 mm 2 mps 757 mmHg 38%
    13:00 +30°C° 0 mm 2 mps 756 mmHg 35%
    14:00 +31°C° 0 mm 1 mps 756 mmHg 32%
    15:00 +31°C° 0 mm 1 mps 755 mmHg 30%
    16:00 +30°C° 0 mm 1 mps 756 mmHg 33%
    17:00 +28°C° 0 mm 1 mps 756 mmHg 36%
    18:00 +27°C° 0 mm 1 mps 756 mmHg 39%
    19:00 +26°C° 0 mm 1 mps 756 mmHg 41%
    20:00 +26°C° 0 mm 2 mps 756 mmHg 43%
    21:00 +25°C° 0 mm 2 mps 756 mmHg 45%
    22:00 +24°C° 0 mm 3 mps 756 mmHg 54%
    23:00 +22°C° 0 mm 3 mps 756 mmHg 62%
    Show more